Location: Helion Bumpstead
(52.0500°N, 0.4000°E)
Time: 23:04:38
(UTC+00:00)

Cosmos 1725 Rocket - Pass Details

Date: 17 February 2026
Orbit: 962 x 989 km, 82.9° (Epoch: 11 March)

Event Time Altitude Azimuth Distance (km) Brightness Sun altitude
Rises 04:58:36 0° 148° (SSE) 3,636 7.3 -20.7°
Reaches altitude 10° 05:01:29 10° 136° (SE) 2,695 6.8 -20.3°
Maximum altitude 05:06:25 26° 82° (E) 1,803 6.2 -19.5°
Drops below altitude 10° 05:11:23 10° 29° (NNE) 2,717 6.8 -18.8°
Sets 05:14:17 0° 17° (NNE) 3,673 7.3 -18.3°
